Time,TemperatureF,DewpointF,PressureIn,WindDirection,WindDirectionDegrees,WindSpeedMPH,WindSpeedGustMPH,Humidity,HourlyPrecipIn,Conditions,Clouds,dailyrainin,SoftwareType,DateUTC
2013-01-09 00:03:00,29.0,23.0,30.33,WNW,300,0.0,0.0,77,0.00,,,0.00,,2013-01-09 05:03:00,
2013-01-09 00:12:00,29.0,23.0,30.33,WNW,300,0.0,0.0,77,0.00,,,0.00,,2013-01-09 05:12:00,
2013-01-09 00:22:00,29.0,23.0,30.34,WNW,300,0.0,0.0,77,0.00,,,0.00,,2013-01-09 05:22:00,
2013-01-09 00:33:00,29.0,23.0,30.34,WNW,300,0.0,0.0,77,0.00,,,0.00,,2013-01-09 05:33:00,
2013-01-09 00:42:00,29.0,23.0,30.34,WNW,300,0.0,0.0,77,0.00,,,0.00,,2013-01-09 05:42:00,
2013-01-09 00:53:00,29.0,23.0,30.34,WNW,300,2.0,3.0,78,0.00,,,0.00,,2013-01-09 05:53:00,
2013-01-09 01:02:00,29.0,23.0,30.33,WNW,300,0.0,4.0,78,0.00,,,0.00,,2013-01-09 06:02:00,
2013-01-09 01:12:00,29.0,23.0,30.33,WNW,300,0.0,4.0,78,0.00,,,0.00,,2013-01-09 06:12:00,
2013-01-09 01:22:00,29.0,23.0,30.33,WNW,300,1.0,3.0,78,0.00,,,0.00,,2013-01-09 06:22:00,
2013-01-09 01:32:00,29.0,23.0,30.33,WNW,300,0.0,2.0,78,0.00,,,0.00,,2013-01-09 06:32:00,
2013-01-09 01:42:00,29.0,23.0,30.33,WNW,300,0.0,2.0,78,0.00,,,0.00,,2013-01-09 06:42:00,
2013-01-09 01:52:00,29.0,23.0,30.33,WNW,300,0.0,3.0,78,0.00,,,0.00,,2013-01-09 06:52:00,
2013-01-09 02:02:00,29.0,23.0,30.33,WNW,300,0.0,3.0,78,0.00,,,0.00,,2013-01-09 07:02:00,
2013-01-09 02:12:00,29.0,23.0,30.33,WNW,300,0.0,3.0,78,0.00,,,0.00,,2013-01-09 07:12:00,
2013-01-09 02:22:00,29.0,23.0,30.32,WNW,300,0.0,0.0,77,0.00,,,0.00,,2013-01-09 07:22:00,
2013-01-09 02:32:00,28.0,22.0,30.32,WNW,300,0.0,0.0,77,0.00,,,0.00,,2013-01-09 07:32:00,
2013-01-09 02:42:00,28.0,22.0,30.32,WNW,300,0.0,0.0,77,0.00,,,0.00,,2013-01-09 07:42:00,
2013-01-09 02:52:00,28.0,22.0,30.32,WNW,300,0.0,0.0,78,0.00,,,0.00,,2013-01-09 07:52:00,
2013-01-09 03:02:00,28.0,22.0,30.32,WNW,300,0.0,2.0,78,0.00,,,0.00,,2013-01-09 08:02:00,
2013-01-09 03:12:00,28.0,22.0,30.32,WNW,300,0.0,2.0,78,0.00,,,0.00,,2013-01-09 08:12:00,
2013-01-09 03:22:00,29.0,23.0,30.33,WNW,300,0.0,2.0,78,0.00,,,0.00,,2013-01-09 08:22:00,
2013-01-09 03:32:00,29.0,23.0,30.32,WNW,300,0.0,0.0,78,0.00,,,0.00,,2013-01-09 08:32:00,
2013-01-09 03:42:00,29.0,23.0,30.32,WNW,300,0.0,0.0,78,0.00,,,0.00,,2013-01-09 08:42:00,
2013-01-09 03:53:00,28.0,22.0,30.32,WNW,300,0.0,2.0,78,0.00,,,0.00,,2013-01-09 08:53:00,
2013-01-09 04:02:00,28.0,22.0,30.32,WNW,300,0.0,0.0,78,0.00,,,0.00,,2013-01-09 09:02:00,
2013-01-09 04:12:00,28.0,22.0,30.32,WNW,300,0.0,0.0,78,0.00,,,0.00,,2013-01-09 09:12:00,
2013-01-09 04:22:00,28.0,22.0,30.32,WNW,300,0.0,2.0,78,0.00,,,0.00,,2013-01-09 09:22:00,
2013-01-09 04:32:00,28.0,22.0,30.32,WNW,300,0.0,1.0,78,0.00,,,0.00,,2013-01-09 09:32:00,
2013-01-09 04:42:00,28.0,22.0,30.32,WNW,300,0.0,1.0,78,0.00,,,0.00,,2013-01-09 09:42:00,
2013-01-09 04:53:00,28.0,22.0,30.33,WNW,300,0.0,1.0,79,0.00,,,0.00,,2013-01-09 09:53:00,
2013-01-09 05:02:00,28.0,22.0,30.32,WNW,300,0.0,0.0,79,0.00,,,0.00,,2013-01-09 10:02:00,
2013-01-09 05:12:00,28.0,22.0,30.32,WNW,300,0.0,0.0,79,0.00,,,0.00,,2013-01-09 10:12:00,
2013-01-09 05:22:00,28.0,22.0,30.32,WNW,300,0.0,0.0,79,0.00,,,0.00,,2013-01-09 10:22:00,
2013-01-09 05:32:00,27.0,21.0,30.31,WNW,300,0.0,0.0,79,0.00,,,0.00,,2013-01-09 10:32:00,
2013-01-09 05:42:00,27.0,21.0,30.31,WNW,300,0.0,0.0,79,0.00,,,0.00,,2013-01-09 10:42:00,
2013-01-09 05:52:00,27.0,21.0,30.31,WNW,300,0.0,0.0,79,0.00,,,0.00,,2013-01-09 10:52:00,
2013-01-09 06:02:00,27.0,21.0,30.32,WNW,300,0.0,0.0,79,0.00,,,0.00,,2013-01-09 11:02:00,
2013-01-09 06:12:00,27.0,21.0,30.32,WNW,300,0.0,0.0,79,0.00,,,0.00,,2013-01-09 11:12:00,
2013-01-09 06:22:00,27.0,21.0,30.31,WNW,300,0.0,0.0,79,0.00,,,0.00,,2013-01-09 11:22:00,
2013-01-09 06:32:00,27.0,21.0,30.31,WNW,300,0.0,0.0,79,0.00,,,0.00,,2013-01-09 11:32:00,
2013-01-09 06:42:00,27.0,21.0,30.31,WNW,300,0.0,0.0,79,0.00,,,0.00,,2013-01-09 11:42:00,
2013-01-09 06:53:00,27.0,21.0,30.31,WNW,300,0.0,0.0,79,0.00,,,0.00,,2013-01-09 11:53:00,
2013-01-09 07:03:00,27.0,21.0,30.31,WNW,300,0.0,0.0,79,0.00,,,0.00,,2013-01-09 12:03:00,
2013-01-09 07:12:00,27.0,21.0,30.31,WNW,300,0.0,0.0,79,0.00,,,0.00,,2013-01-09 12:12:00,
2013-01-09 07:23:00,26.0,20.0,30.32,WNW,300,0.0,0.0,79,0.00,,,0.00,,2013-01-09 12:23:00,
2013-01-09 07:33:00,26.0,20.0,30.32,WNW,300,0.0,0.0,79,0.00,,,0.00,,2013-01-09 12:33:00,
2013-01-09 07:43:00,26.0,20.0,30.32,WNW,300,0.0,0.0,79,0.00,,,0.00,,2013-01-09 12:43:00,
2013-01-09 07:53:00,27.0,21.0,30.32,WNW,300,0.0,1.0,79,0.00,,,0.00,,2013-01-09 12:53:00,
2013-01-09 08:03:00,27.0,21.0,30.33,WNW,300,0.0,0.0,79,0.00,,,0.00,,2013-01-09 13:03:00,
2013-01-09 08:12:00,27.0,21.0,30.33,WNW,300,0.0,0.0,79,0.00,,,0.00,,2013-01-09 13:12:00,
2013-01-09 08:23:00,27.0,21.0,30.32,WNW,300,0.0,0.0,79,0.00,,,0.00,,2013-01-09 13:23:00,
2013-01-09 08:33:00,27.0,22.0,30.32,WNW,300,0.0,0.0,80,0.00,,,0.00,,2013-01-09 13:33:00,
2013-01-09 08:43:00,27.0,22.0,30.32,WNW,300,0.0,0.0,80,0.00,,,0.00,,2013-01-09 13:43:00,
2013-01-09 08:53:00,28.0,23.0,30.32,WNW,300,0.0,1.0,80,0.00,,,0.00,,2013-01-09 13:53:00,
2013-01-09 09:03:00,29.0,24.0,30.33,WNW,300,0.0,1.0,80,0.00,,,0.00,,2013-01-09 14:03:00,
2013-01-09 09:12:00,29.0,24.0,30.33,WNW,300,0.0,2.0,80,0.00,,,0.00,,2013-01-09 14:12:00,
2013-01-09 09:23:00,29.0,24.0,30.33,WNW,300,0.0,2.0,80,0.00,,,0.00,,2013-01-09 14:23:00,
2013-01-09 09:33:00,30.0,24.0,30.33,WNW,300,0.0,0.0,79,0.00,,,0.00,,2013-01-09 14:33:00,
2013-01-09 09:43:00,30.0,24.0,30.33,WNW,300,0.0,0.0,79,0.00,,,0.00,,2013-01-09 14:43:00,
2013-01-09 09:53:00,31.0,25.0,30.32,WNW,300,0.0,0.0,79,0.00,,,0.00,,2013-01-09 14:53:00,
2013-01-09 10:03:00,32.0,26.0,30.33,WNW,300,0.0,1.0,79,0.00,,,0.00,,2013-01-09 15:03:00,
2013-01-09 10:13:00,32.0,26.0,30.33,WNW,300,0.0,1.0,79,0.00,,,0.00,,2013-01-09 15:13:00,
2013-01-09 10:23:00,34.0,28.0,30.32,WNW,300,0.0,1.0,78,0.00,,,0.00,,2013-01-09 15:23:00,
2013-01-09 10:33:00,36.0,29.0,30.32,WNW,300,0.0,0.0,76,0.00,,,0.00,,2013-01-09 15:33:00,
2013-01-09 10:42:00,36.0,29.0,30.32,WNW,300,0.0,0.0,76,0.00,,,0.00,,2013-01-09 15:42:00,
2013-01-09 10:53:00,36.0,29.0,30.32,WNW,300,1.0,2.0,74,0.00,,,0.00,,2013-01-09 15:53:00,
2013-01-09 11:03:00,36.0,29.0,30.32,WNW,300,1.0,2.0,75,0.00,,,0.00,,2013-01-09 16:03:00,
2013-01-09 11:12:00,36.0,29.0,30.32,WNW,300,1.0,2.0,75,0.00,,,0.00,,2013-01-09 16:12:00,
2013-01-09 11:23:00,35.0,28.0,30.31,WNW,300,0.0,2.0,76,0.00,,,0.00,,2013-01-09 16:23:00,
2013-01-09 11:33:00,36.0,29.0,30.31,WNW,300,0.0,2.0,76,0.00,,,0.00,,2013-01-09 16:33:00,
2013-01-09 11:43:00,36.0,29.0,30.31,WNW,300,0.0,2.0,76,0.00,,,0.00,,2013-01-09 16:43:00,
2013-01-09 11:53:00,36.0,29.0,30.31,WNW,300,0.0,2.0,75,0.00,,,0.00,,2013-01-09 16:53:00,
2013-01-09 12:03:00,36.0,29.0,30.30,WNW,300,0.0,0.0,75,0.00,,,0.00,,2013-01-09 17:03:00,
2013-01-09 12:12:00,36.0,29.0,30.30,WNW,300,0.0,0.0,75,0.00,,,0.00,,2013-01-09 17:12:00,
2013-01-09 12:23:00,36.0,29.0,30.31,WNW,300,0.0,2.0,76,0.00,,,0.00,,2013-01-09 17:23:00,
2013-01-09 12:33:00,36.0,29.0,30.30,WNW,300,1.0,3.0,76,0.00,,,0.00,,2013-01-09 17:33:00,
2013-01-09 12:43:00,36.0,29.0,30.30,WNW,300,1.0,3.0,76,0.00,,,0.00,,2013-01-09 17:43:00,
2013-01-09 12:53:00,37.0,30.0,30.27,WNW,300,0.0,3.0,75,0.00,,,0.00,,2013-01-09 17:53:00,
2013-01-09 13:03:00,39.0,31.0,30.26,WNW,300,3.0,5.0,73,0.00,,,0.00,,2013-01-09 18:03:00,
2013-01-09 13:12:00,39.0,31.0,30.26,WNW,300,3.0,5.0,73,0.00,,,0.00,,2013-01-09 18:12:00,
2013-01-09 13:24:00,41.0,32.0,30.25,South,170,3.0,7.0,69,0.00,,,0.00,,2013-01-09 18:24:00,
2013-01-09 13:33:00,42.0,31.0,30.23,South,190,3.0,8.0,66,0.00,,,0.00,,2013-01-09 18:33:00,
2013-01-09 13:43:00,42.0,31.0,30.23,South,190,3.0,8.0,66,0.00,,,0.00,,2013-01-09 18:43:00,
2013-01-09 13:53:00,41.0,31.0,30.23,SSW,202,5.0,7.0,66,0.00,,,0.00,,2013-01-09 18:53:00,
2013-01-09 14:03:00,41.0,31.0,30.22,SW,215,5.0,9.0,67,0.00,,,0.00,,2013-01-09 19:03:00,
2013-01-09 14:13:00,41.0,31.0,30.22,SW,215,5.0,9.0,67,0.00,,,0.00,,2013-01-09 19:13:00,
2013-01-09 14:23:00,41.0,31.0,30.18,SSW,192,3.0,8.0,68,0.00,,,0.00,,2013-01-09 19:23:00,
2013-01-09 14:33:00,42.0,32.0,30.19,SW,215,1.0,7.0,68,0.00,,,0.00,,2013-01-09 19:33:00,
2013-01-09 14:43:00,42.0,32.0,30.19,SW,215,1.0,7.0,68,0.00,,,0.00,,2013-01-09 19:43:00,
2013-01-09 14:53:00,41.0,32.0,30.22,WNW,298,3.0,6.0,69,0.00,,,0.00,,2013-01-09 19:53:00,
2013-01-09 15:03:00,41.0,32.0,30.22,WNW,297,0.0,5.0,70,0.00,,,0.00,,2013-01-09 20:03:00,
2013-01-09 15:12:00,41.0,32.0,30.22,WNW,297,0.0,5.0,70,0.00,,,0.00,,2013-01-09 20:12:00,
2013-01-09 15:23:00,41.0,32.0,30.22,WNW,297,2.0,4.0,70,0.00,,,0.00,,2013-01-09 20:23:00,
2013-01-09 15:33:00,41.0,32.0,30.22,WNW,296,1.0,4.0,70,0.00,,,0.00,,2013-01-09 20:33:00,
2013-01-09 15:43:00,41.0,32.0,30.22,WNW,296,1.0,4.0,70,0.00,,,0.00,,2013-01-09 20:43:00,
2013-01-09 15:53:00,42.0,33.0,30.22,WNW,296,0.0,3.0,69,0.00,,,0.00,,2013-01-09 20:53:00,
2013-01-09 16:03:00,42.0,33.0,30.22,WNW,296,0.0,3.0,70,0.00,,,0.00,,2013-01-09 21:03:00,
2013-01-09 16:13:00,42.0,33.0,30.22,WNW,296,0.0,3.0,70,0.00,,,0.00,,2013-01-09 21:13:00,
2013-01-09 16:23:00,42.0,33.0,30.21,WNW,296,1.0,2.0,69,0.00,,,0.00,,2013-01-09 21:23:00,
2013-01-09 16:33:00,43.0,34.0,30.22,WNW,296,0.0,1.0,70,0.00,,,0.00,,2013-01-09 21:33:00,
2013-01-09 16:43:00,43.0,34.0,30.22,WNW,296,0.0,1.0,70,0.00,,,0.00,,2013-01-09 21:43:00,
2013-01-09 16:53:00,43.0,34.0,30.22,WNW,296,1.0,2.0,70,0.00,,,0.00,,2013-01-09 21:53:00,
2013-01-09 17:03:00,43.0,34.0,30.23,WNW,296,0.0,3.0,69,0.00,,,0.00,,2013-01-09 22:03:00,
2013-01-09 17:12:00,43.0,34.0,30.23,WNW,296,0.0,3.0,69,0.00,,,0.00,,2013-01-09 22:12:00,
2013-01-09 17:23:00,43.0,33.0,30.23,WNW,296,2.0,3.0,68,0.00,,,0.00,,2013-01-09 22:23:00,
2013-01-09 17:33:00,43.0,34.0,30.23,WNW,296,1.0,3.0,69,0.00,,,0.00,,2013-01-09 22:33:00,
2013-01-09 17:43:00,43.0,34.0,30.23,WNW,296,1.0,3.0,69,0.00,,,0.00,,2013-01-09 22:43:00,
2013-01-09 17:52:00,42.0,33.0,30.23,WNW,296,2.0,3.0,70,0.00,,,0.00,,2013-01-09 22:52:00,
2013-01-09 18:03:00,42.0,34.0,30.24,WNW,296,0.0,2.0,72,0.00,,,0.00,,2013-01-09 23:03:00,
2013-01-09 18:13:00,43.0,36.0,30.26,WNW,296,2.0,2.0,76,0.00,,,0.00,,2013-01-09 23:13:00,
2013-01-09 18:23:00,43.0,36.0,30.26,WNW,296,2.0,2.0,76,0.00,,,0.00,,2013-01-09 23:23:00,
2013-01-09 18:33:00,46.0,37.0,30.26,WNW,296,0.0,3.0,72,0.00,,,0.00,,2013-01-09 23:33:00,
2013-01-09 18:43:00,46.0,37.0,30.26,WNW,296,0.0,3.0,72,0.00,,,0.00,,2013-01-09 23:43:00,
2013-01-09 18:53:00,49.0,39.0,30.27,WNW,282,4.0,9.0,69,0.00,,,0.00,,2013-01-09 23:53:00,
2013-01-09 19:03:00,48.0,38.0,30.28,West,272,2.0,4.0,67,0.00,,,0.00,,2013-01-10 00:03:00,
2013-01-09 19:12:00,48.0,38.0,30.28,West,272,2.0,4.0,67,0.00,,,0.00,,2013-01-10 00:12:00,
2013-01-09 19:22:00,48.0,38.0,30.28,WSW,254,3.0,8.0,67,0.00,,,0.00,,2013-01-10 00:22:00,
2013-01-09 19:32:00,47.0,37.0,30.28,WSW,251,1.0,6.0,67,0.00,,,0.00,,2013-01-10 00:32:00,
2013-01-09 19:42:00,47.0,37.0,30.28,WSW,251,1.0,6.0,67,0.00,,,0.00,,2013-01-10 00:42:00,
2013-01-09 19:53:00,46.0,36.0,30.28,SW,236,1.0,6.0,68,0.00,,,0.00,,2013-01-10 00:53:00,
2013-01-09 20:02:00,46.0,36.0,30.28,WSW,255,0.0,3.0,67,0.00,,,0.00,,2013-01-10 01:02:00,
2013-01-09 20:12:00,46.0,36.0,30.28,WSW,255,0.0,3.0,67,0.00,,,0.00,,2013-01-10 01:12:00,
2013-01-09 20:22:00,47.0,35.0,30.29,West,261,6.0,9.0,63,0.00,,,0.00,,2013-01-10 01:22:00,
2013-01-09 20:33:00,47.0,35.0,30.29,West,262,5.0,7.0,62,0.00,,,0.00,,2013-01-10 01:33:00,
2013-01-09 20:43:00,47.0,35.0,30.29,West,262,5.0,7.0,62,0.00,,,0.00,,2013-01-10 01:43:00,
2013-01-09 20:53:00,47.0,34.0,30.29,West,265,4.0,9.0,61,0.00,,,0.00,,2013-01-10 01:53:00,
2013-01-09 21:03:00,47.0,34.0,30.30,West,266,5.0,7.0,60,0.00,,,0.00,,2013-01-10 02:03:00,
2013-01-09 21:12:00,47.0,34.0,30.30,West,266,5.0,7.0,60,0.00,,,0.00,,2013-01-10 02:12:00,
2013-01-09 21:22:00,47.0,33.0,30.30,West,279,5.0,9.0,59,0.00,,,0.00,,2013-01-10 02:22:00,
2013-01-09 21:32:00,46.0,33.0,30.30,West,271,2.0,5.0,60,0.00,,,0.00,,2013-01-10 02:32:00,
2013-01-09 21:42:00,46.0,33.0,30.30,West,271,2.0,5.0,60,0.00,,,0.00,,2013-01-10 02:42:00,
2013-01-09 21:53:00,46.0,33.0,30.30,West,271,2.0,5.0,60,0.00,,,0.00,,2013-01-10 02:53:00,
2013-01-09 22:03:00,45.0,32.0,30.31,West,261,4.0,10.0,60,0.00,,,0.00,,2013-01-10 03:03:00,
2013-01-09 22:12:00,45.0,32.0,30.31,West,261,4.0,10.0,60,0.00,,,0.00,,2013-01-10 03:12:00,
2013-01-09 22:22:00,43.0,31.0,30.31,West,262,2.0,5.0,62,0.00,,,0.00,,2013-01-10 03:22:00,
2013-01-09 22:33:00,43.0,31.0,30.31,West,264,0.0,8.0,63,0.00,,,0.00,,2013-01-10 03:33:00,
2013-01-09 22:42:00,43.0,31.0,30.31,West,264,0.0,8.0,63,0.00,,,0.00,,2013-01-10 03:42:00,
2013-01-09 22:53:00,43.0,30.0,30.32,West,263,2.0,5.0,61,0.00,,,0.00,,2013-01-10 03:53:00,
2013-01-09 23:02:00,45.0,31.0,30.33,West,262,4.0,8.0,57,0.00,,,0.00,,2013-01-10 04:02:00,
2013-01-09 23:12:00,45.0,31.0,30.33,West,262,4.0,8.0,57,0.00,,,0.00,,2013-01-10 04:12:00,
2013-01-09 23:22:00,46.0,30.0,30.34,West,265,5.0,8.0,54,0.00,,,0.00,,2013-01-10 04:22:00,
2013-01-09 23:32:00,46.0,29.0,30.35,West,271,3.0,8.0,52,0.00,,,0.00,,2013-01-10 04:32:00,
2013-01-09 23:43:00,46.0,29.0,30.35,West,271,3.0,8.0,52,0.00,,,0.00,,2013-01-10 04:43:00,
2013-01-09 23:53:00,46.0,29.0,30.35,West,271,3.0,6.0,52,0.00,,,0.00,,2013-01-10 04:53:00,